User: anonymous   Login
Location: Unspecified
(0.0000°N, 0.0000°E)
Time: 07:59:44
(UTC+00:00)
Language:

COSMOS 2416 - Orbit

View from above orbital plane
View from above orbital plane
View from above satellite
View from above satellite

Ground track
Ground track

The orbit data is extracted from the following two-line orbital elements,

1 28909U 05048B   24113.91448602  .00000039  00000-0  17487-3 0  9992
2 28909  82.4643  92.1509 0009009 109.8249 308.9704 12.55245792840155
Epoch (UTC): 22 April 2024 21:56:51
Eccentricity: 0.0009009
inclination: 82.4643°
perigee height: 1435 km
apogee height: 1449 km
right ascension of ascending node: 92.1509°
argument of perigee: 109.8249°
revolutions per day: 12.55245792
mean anomaly at epoch: 308.9704°
orbit number at epoch: 84015

The dashed part of the orbit path shows where the satellite is in the earth's shadow,  

DLR